Wind_Speed
32 27 31 29 35 40 39 46 38 34 32 30 28 27 28 28 28 29 29 31 31 32 32 31 31 31 28
24 30 23 31 26 24 29 32 30 27 28 27 26 28 29 29 30 29 29 30 31 31 30 29 26 25 25
28 31 28 27 25 22 24 27 25 29 28 27 27 27 28 26 26 27 28 28 28 27 25 24 25 27 29
30 30 28 28 30 29 33 30 26 27 26 25 26 27 26 26 26 26 26 26 26 25 26 27 29 31 34
28 26 25 28 31 31 28 25 23 24 25 24 23 25 24 23 23 23 23 24 26 27 30 33 35 37 41
31 31 31 31 19 19 21 23 26 25 23 21 22 22 21 20 21 22 24 28 32 35 38 40 42 42 39
23 18 18 19 19 21 21 19 18 18 18 19 19 20 21 22 25 29 33 36 38 40 40 40 40 39 39
13 14 17 17 15 15 14 14 15 16 17 18 20 23 26 30 32 34 35 36 36 37 38 40 41 42 44
17 15 13 12 11 12 12 14 15 16 19 22 26 28 30 32 32 34 36 37 39 41 43 44 45 46 44
7 8 8 7 9 11 13 16 20 21 22 24 27 30 33 33 33 36 37 39 41 42 43 43 43 44 43
8 9 10 11 12 14 16 19 21 22 25 27 28 29 31 33 31 33 34 36 37 37 39 42 44 46 47
5 8 10 14 16 18 20 22 24 25 25 27 30 33 35 34 32 29 30 32 34 36 39 42 43 45 46
11 13 16 18 16 17 21 21 23 26 29 32 36 39 38 37 36 31 35 34 36 40 43 44 45 44 44
15 14 14 16 17 18 22 24 27 30 33 37 41 43 40 40 41 37 36 40 39 43 49 48 45 44 44
11 13 16 18 22 25 28 30 31 33 37 42 45 43 42 42 40 38 40 42 46 49 47 46 42 41 41
18 20 22 26 28 31 33 34 35 36 41 45 44 44 44 39 40 43 42 45 45 45 44 46 43 37 39
25 28 30 32 34 35 37 39 40 42 42 41 40 41 44 46 46 45 46 45 44 43 42 41 42 40 40
Wind_Direction
256 254 254 255 263 250 244 239 248 259 262 265 266 269 268 267 267 267 267 269 270 272 271 270 271 272 277
259 253 262 265 256 255 250 245 249 255 259 265 267 267 269 268 269 270 271 270 272 275 276 276 277 277 278
250 245 247 252 260 244 256 250 251 259 263 263 267 272 271 271 272 273 274 277 278 276 275 275 276 279 282
256 255 244 250 254 251 260 251 254 258 261 264 265 269 271 271 272 273 274 274 273 271 271 275 279 283 287
246 247 250 257 255 255 239 245 259 261 262 265 267 268 270 272 273 274 274 273 273 275 279 282 285 287 287
247 250 255 250 233 241 256 262 259 262 264 266 267 268 271 272 272 272 275 279 283 286 288 287 287 286 282
242 232 222 236 247 253 257 258 257 259 263 267 271 274 276 277 280 283 285 286 286 286 285 283 281 280 280
223 235 250 258 259 257 256 257 259 263 266 270 273 275 279 282 285 286 286 286 286 285 284 284 285 285 285
242 248 248 249 252 254 255 255 257 261 267 273 279 282 283 285 287 287 287 286 286 287 287 287 287 287 287
235 233 233 244 258 257 259 266 272 276 279 282 284 286 286 284 286 286 286 285 285 286 288 288 289 289 289
233 249 260 271 272 272 276 278 278 280 284 285 288 291 292 292 291 291 291 291 292 294 294 293 293 294 294
255 270 276 278 278 277 278 279 282 284 288 293 298 302 301 297 296 292 289 288 289 288 287 287 289 290 291
283 282 282 282 279 276 284 293 299 301 300 301 304 308 306 305 302 300 293 288 292 293 293 295 295 294 293
288 282 277 277 287 297 305 304 302 301 302 304 305 308 305 305 304 303 298 298 298 298 297 298 298 298 296
290 288 289 294 298 299 302 302 301 300 301 302 305 304 302 303 302 303 303 302 302 301 300 297 298 299 297
291 295 295 293 293 295 297 297 296 295 296 299 303 302 301 301 303 303 304 303 302 301 301 301 301 300 297
295 295 294 293 294 295 295 294 293 293 297 302 300 302 303 306 306 307 308 306 304 302 302 302 304 303 301
Height
3043 3045 3047 3048 3049 3050 3052 3053 3054 3056 3057 3058 3057 3057 3057 3056 3056 3057 3057 3057 3056 3057 3056 3055 3055 3055 3054
3036 3037 3038 3041 3042 3042 3042 3045 3047 3048 3049 3050 3049 3050 3049 3048 3049 3049 3049 3049 3049 3049 3049 3049 3048 3047 3047
3028 3030 3031 3034 3036 3036 3039 3040 3040 3042 3041 3042 3043 3043 3043 3041 3041 3042 3042 3042 3042 3041 3040 3040 3040 3040 3038
3019 3024 3025 3027 3029 3030 3032 3033 3033 3035 3035 3035 3036 3035 3035 3034 3034 3034 3035 3034 3033 3033 3032 3031 3031 3030 3030
3014 3016 3018 3021 3023 3023 3025 3026 3027 3028 3028 3028 3028 3029 3029 3028 3029 3028 3028 3027 3027 3026 3025 3023 3022 3021 3019
3007 3009 3011 3013 3015 3017 3018 3019 3021 3021 3022 3022 3023 3023 3022 3021 3021 3021 3021 3019 3018 3016 3015 3013 3011 3009 3007
3002 3004 3007 3008 3010 3011 3012 3014 3015 3016 3016 3017 3016 3015 3015 3015 3015 3013 3012 3010 3007 3005 3003 3001 2999 2997 2996
2998 3001 3003 3004 3005 3007 3008 3009 3010 3011 3011 3011 3010 3010 3010 3008 3007 3004 3002 2999 2997 2994 2992 2990 2987 2985 2983
2996 2997 2999 3001 3002 3003 3004 3005 3006 3006 3006 3006 3004 3003 3002 3000 2998 2995 2993 2990 2987 2984 2981 2977 2974 2972 2971
2994 2996 2998 2999 3000 3001 3001 3002 3002 3001 3000 2999 2997 2995 2993 2992 2989 2986 2983 2979 2975 2972 2968 2964 2961 2958 2957
2995 2996 2997 2997 2997 2997 2997 2997 2996 2994 2993 2991 2989 2986 2984 2981 2980 2975 2971 2967 2963 2961 2956 2951 2948 2945 2942
2994 2994 2994 2994 2994 2993 2992 2990 2989 2987 2985 2983 2980 2977 2974 2971 2969 2967 2962 2958 2954 2951 2946 2942 2939 2934 2930
2992 2991 2990 2989 2988 2987 2986 2984 2982 2980 2977 2974 2970 2967 2963 2959 2956 2957 2950 2950 2945 2938 2934 2930 2926 2922 2918
2987 2986 2985 2985 2983 2982 2980 2978 2975 2972 2968 2964 2960 2957 2953 2949 2944 2943 2940 2934 2933 2927 2919 2915 2912 2908 2904
2983 2982 2981 2980 2978 2976 2973 2970 2967 2964 2960 2955 2950 2946 2942 2938 2934 2931 2927 2923 2918 2911 2906 2902 2901 2894 2889
2979 2977 2975 2973 2970 2968 2965 2961 2958 2955 2951 2946 2940 2934 2930 2930 2924 2919 2917 2909 2905 2900 2893 2885 2885 2885 2878
2973 2970 2967 2965 2962 2959 2955 2950 2947 2944 2940 2935 2930 2924 2917 2914 2912 2909 2901 2897 2891 2887 2880 2875 2871 2870 2864